Wetbulb
43.45 43.34 43.89 45.21 45.83 46.44 40.01 31.14 24.50 38.23 39.32 26.50 25.14 21.14 29.21 35.49 31.85 34.07 31.94 32.28 31.00 27.31 29.08 27.89 31.59 28.27 31.88 35.21 35.68 32.16 36.26 34.66 27.90 32.17 38.51 38.93 36.90 34.29 34.35 25.79 25.61 29.13 27.27 28.89
43.24 43.16 43.42 44.80 45.37 46.16 37.52 28.08 27.93 36.89 34.78 16.35 20.38 26.64 29.14 31.84 28.87 29.79 28.42 28.92 31.42 29.99 26.99 25.21 30.77 28.46 33.45 33.57 33.90 32.08 35.28 31.88 25.73 29.61 33.53 36.96 33.35 35.53 36.40 34.94 32.14 29.38 24.36 27.52
43.30 43.16 43.17 44.37 44.94 46.00 34.43 28.12 18.69 24.21 26.77 26.84 24.50 24.73 24.86 24.96 31.94 29.75 30.17 29.82 29.73 27.12 25.09 29.31 27.58 25.87 30.52 33.52 35.30 37.47 37.86 34.80 30.53 25.22 29.15 33.66 30.90 34.45 35.91 34.92 27.85 28.76 29.89 34.45
43.01 42.99 43.02 43.36 44.46 45.09 32.38 25.95 19.94 24.59 16.75 23.84 24.93 26.25 25.84 23.35 23.37 29.54 30.26 26.53 26.40 25.29 22.54 23.96 23.11 26.06 27.43 31.24 35.37 31.81 33.08 30.11 32.06 34.34 36.99 37.65 35.53 33.97 34.64 33.52 33.87 31.28 33.65 35.71
42.39 42.99 43.16 43.07 44.05 43.00 32.69 22.87 22.78 25.71 24.15 25.76 23.59 24.71 22.75 23.03 24.86 26.19 24.08 23.95 26.84 27.12 23.72 23.88 20.82 24.12 25.06 25.46 30.50 28.90 31.66 28.28 31.27 28.28 37.15 37.18 33.96 36.22 35.21 34.84 35.76 35.16 35.80 35.77
42.07 42.62 43.02 43.36 43.59 40.17 30.30 31.36 31.41 25.06 25.37 22.87 21.86 22.45 23.58 24.08 26.12 27.72 28.16 27.28 25.47 25.18 26.44 28.56 28.81 29.28 29.12 28.53 26.14 26.15 27.93 27.58 27.32 26.23 33.47 34.77 27.50 33.42 35.40 35.76 37.36 34.81 32.23 36.37
41.88 42.08 42.70 43.31 43.79 41.43 31.84 31.66 29.38 21.08 19.34 22.57 22.66 25.21 25.67 25.03 25.63 23.79 27.25 28.41 25.80 29.43 33.28 31.44 30.05 29.39 29.25 29.21 29.28 29.74 26.43 26.78 28.35 24.86 30.62 21.44 33.55 40.38 40.16 36.50 38.11 38.70 39.83 40.22
41.49 41.62 42.02 42.57 43.52 44.01 34.18 32.50 30.10 20.89 21.53 24.53 24.73 25.14 24.91 26.24 26.48 25.03 25.97 28.70 30.85 31.55 27.59 22.25 22.20 20.69 24.59 25.64 29.71 29.51 29.67 29.01 24.35 23.71 26.10 30.78 35.54 35.46 35.89 35.93 34.90 37.91 37.44 39.04
41.32 41.19 41.41 42.08 42.83 43.83 35.73 33.16 36.36 32.56 24.29 19.92 27.33 24.57 25.66 22.52 22.47 22.93 25.91 30.98 32.24 29.64 24.98 21.95 14.00 15.20 23.28 24.81 29.02 32.46 30.89 31.93 24.03 23.86 21.80 19.83 29.83 34.18 37.94 38.94 30.99 37.27 38.15 38.13
41.39 41.06 41.25 41.72 42.27 43.31 37.62 33.90 35.20 31.07 26.87 26.31 27.56 24.41 25.18 27.03 24.96 23.35 25.28 27.34 26.71 29.37 23.39 16.33 15.81 20.63 28.02 23.39 21.98 25.80 24.69 24.40 23.78 23.66 21.03 27.82 31.38 35.28 37.90 31.51 31.01 36.87 37.68 37.50
41.27 40.95 40.80 41.30 41.99 42.80 40.98 34.60 35.32 33.88 30.61 28.32 30.65 31.83 26.98 27.15 25.88 23.24 27.14 21.26 26.25 26.17 21.94 18.69 20.15 21.40 24.51 25.44 24.96 23.00 24.90 23.05 22.64 23.87 20.01 17.25 33.25 34.40 30.50 33.04 36.38 37.52 37.89 37.63
41.29 40.93 40.73 41.03 41.77 42.52 42.89 35.55 36.43 38.60 33.46 27.46 32.49 34.28 34.54 33.34 32.79 27.79 24.65 21.88 26.76 22.32 23.12 23.89 24.12 21.17 24.22 23.17 18.45 28.83 21.63 27.09 25.62 25.64 23.96 32.43 35.62 34.35 36.75 37.87 36.73 37.73 38.36 38.98
41.24 40.83 40.71 40.98 41.61 42.44 41.86 37.90 34.59 37.30 31.43 27.12 26.33 27.47 34.46 37.18 35.35 35.54 24.03 24.70 29.63 26.99 29.38 24.98 25.46 20.58 25.61 19.63 21.52 24.63 29.85 31.53 26.75 29.11 29.53 32.14 34.41 34.76 37.25 39.13 38.54 38.99 39.92 39.91
41.25 40.73 40.64 40.91 41.40 42.33 42.70 37.23 37.76 33.36 29.71 24.33 24.42 34.20 31.25 35.70 35.63 34.39 33.24 30.74 30.63 29.13 27.11 22.39 21.32 21.03 27.19 21.24 24.39 25.85 29.24 30.40 27.80 27.73 30.45 32.00 33.99 35.72 37.19 38.32 38.88 38.70 40.16 40.95
41.09 40.61 40.58 41.24 41.74 42.58 39.11 39.10 36.15 36.61 28.46 20.87 23.75 29.91 33.39 36.31 35.99 34.79 34.73 32.75 28.38 23.86 18.54 18.76 19.86 24.89 25.02 25.02 25.87 26.99 31.00 28.88 23.49 23.04 30.09 29.32 31.71 37.15 38.14 37.28 37.74 38.60 39.66 41.01
40.86 40.60 40.47 41.39 41.65 42.32 33.69 26.89 37.98 39.71 33.15 28.47 19.34 26.99 29.69 33.33 34.71 32.96 31.45 31.28 28.61 26.27 20.96 19.67 23.62 28.27 26.11 21.41 21.28 29.23 32.97 33.79 34.10 30.43 35.34 32.60 35.79 37.97 37.98 37.80 37.71 38.63 40.49 39.62
40.89 40.35 40.58 41.30 41.89 39.68 32.63 31.43 36.74 39.07 35.20 27.65 22.52 21.81 28.86 33.59 32.20 29.51 29.30 30.65 28.22 26.55 20.10 19.09 23.13 24.70 25.30 20.49 22.50 28.81 33.15 34.68 34.61 35.71 35.07 30.88 35.18 34.16 38.28 38.15 37.36 38.28 41.65 40.06
40.69 40.26 41.10 41.70 42.38 40.53 35.43 38.86 38.42 36.03 26.97 29.16 21.92 20.93 23.41 30.74 24.32 22.47 28.59 23.85 25.21 25.34 24.03 24.87 23.21 24.82 23.59 18.16 28.97 32.06 33.69 34.97 35.39 35.37 35.19 33.37 36.86 37.08 36.92 36.55 36.60 36.04 37.38 37.39
40.50 40.74 41.51 37.56 32.25 31.26 33.64 39.56 38.57 37.28 31.20 16.64 20.95 17.56 11.85 27.94 24.91 24.75 24.44 25.22 20.53 29.57 26.21 25.91 26.82 24.90 22.86 28.43 29.57 30.87 32.64 32.49 33.31 35.20 35.08 35.75 35.00 35.78 34.49 34.83 34.12 34.15 37.47 37.88
40.97 38.13 26.84 23.97 26.76 40.16 38.08 30.55 23.17 28.29 18.62 29.24 22.69 23.78 19.55 24.42 22.89 21.86 20.20 20.18 19.56 19.93 26.19 30.77 27.86 24.74 30.66 31.51 31.92 32.44 32.79 32.92 33.80 32.04 30.43 33.97 34.25 32.75 33.02 33.10 34.33 35.62 35.73 36.35
33.19 29.42 29.23 33.12 39.59 30.24 24.15 16.59 14.33 15.84 15.67 20.55 24.76 24.22 22.39 26.77 20.21 20.14 20.00 16.97 21.52 16.84 24.12 25.11 23.38 21.68 26.71 31.17 31.47 33.47 33.66 34.79 36.05 35.62 36.18 36.51 35.51 33.45 32.31 32.76 34.02 34.47 35.84 35.51
35.56 33.83 37.78 33.69 23.71 19.15 16.74 12.55 20.67 22.01 20.96 23.62 23.65 23.53 24.33 25.39 26.31 21.62 22.05 20.24 21.79 18.50 24.85 22.40 20.79 24.06 29.77 31.34 30.98 32.81 32.99 34.15 36.10 37.22 36.16 36.91 35.27 34.45 34.03 34.14 34.22 34.09 34.94 36.32
36.26 32.84 27.44 22.27 21.89 7.54 14.32 4.80 18.02 16.92 23.59 24.11 23.69 22.46 25.20 25.63 26.27 22.16 21.48 20.15 18.01 23.33 20.23 20.33 23.90 29.45 31.95 31.53 30.89 31.59 32.33 32.47 32.67 33.86 36.41 37.02 36.18 36.04 34.57 34.57 35.30 35.59 35.00 34.80
30.39 25.04 9.23 17.62 10.20 18.92 20.53 21.35 21.56 25.16 25.75 24.66 23.28 21.87 21.75 21.61 22.29 23.01 20.71 23.11 21.99 16.46 18.94 19.83 25.62 29.25 31.86 32.59 32.03 30.92 29.81 30.64 31.51 32.37 32.29 31.90 31.83 31.38 33.00 33.65 33.74 31.56 31.07 32.33
29.68 27.49 18.87 21.28 24.04 24.07 23.94 24.77 24.56 25.81 25.95 25.07 23.93 23.51 22.49 22.13 20.63 22.23 21.59 16.64 13.46 20.68 20.10 23.86 26.93 31.79 33.13 32.15 32.44 31.85 30.27 30.94 32.59 33.14 32.72 31.53 31.73 31.47 31.74 32.04 32.58 33.62 31.19 31.22
31.76 28.24 23.82 24.65 22.92 20.59 22.94 25.18 24.95 27.50 26.05 26.49 24.76 21.68 16.19 18.98 22.07 21.28 17.18 19.55 17.94 21.09 23.31 25.70 30.03 31.19 31.53 31.43 32.38 32.87 32.78 31.86 32.25 32.30 33.32 33.24 32.38 31.35 33.11 33.87 34.46 30.43 30.46 28.04
28.36 24.19 24.85 25.30 24.32 22.94 25.88 26.97 27.09 29.10 26.50 23.64 23.34 17.82 20.18 21.76 18.79 20.56 21.74 19.92 23.04 23.68 23.98 27.62 29.75 31.08 31.97 32.50 32.72 33.62 33.51 33.18 32.83 32.19 32.76 33.44 34.08 34.10 33.70 33.06 34.30 34.57 34.63 31.25
MSLP
1026.89 1026.11 1025.26 1024.05 1022.69 1021.45 1020.48 1020.96 1020.67 1018.81 1017.58 1018.79 1019.94 1019.98 1019.05 1017.62 1016.63 1015.66 1015.37 1014.94 1015.01 1015.08 1014.19 1013.30 1012.81 1012.93 1012.61 1011.95 1010.66 1009.29 1007.89 1006.31 1004.30 1002.80 1001.13 1001.16 1001.14 1002.56 1003.88 1005.48 1006.69 1006.63 1006.43 1004.97
1027.27 1026.54 1025.64 1024.46 1023.30 1022.18 1021.83 1022.46 1021.95 1019.93 1019.43 1021.56 1021.70 1020.67 1019.87 1018.67 1017.74 1016.96 1016.64 1016.59 1016.31 1016.10 1015.45 1014.80 1014.29 1013.80 1013.07 1012.42 1011.60 1010.63 1009.02 1007.04 1005.32 1003.60 1002.48 1001.38 1001.67 1002.07 1003.10 1004.66 1005.91 1006.37 1006.43 1004.80
1027.62 1027.06 1026.13 1024.99 1023.69 1022.35 1022.29 1023.31 1023.77 1023.27 1022.99 1023.19 1022.86 1021.89 1021.17 1019.78 1018.84 1017.96 1017.64 1017.48 1017.22 1016.63 1016.26 1015.92 1015.61 1014.82 1013.56 1013.14 1012.29 1010.70 1009.22 1008.08 1007.01 1005.09 1003.88 1003.05 1002.37 1002.44 1003.09 1004.25 1005.66 1006.13 1005.45 1004.29
1028.06 1027.51 1026.73 1025.87 1024.69 1023.16 1022.98 1024.96 1026.00 1025.61 1025.37 1024.18 1023.63 1022.70 1022.29 1021.08 1020.10 1019.34 1018.90 1018.34 1018.47 1017.94 1017.41 1016.76 1016.61 1016.10 1014.46 1013.33 1012.21 1011.38 1010.66 1009.49 1007.96 1006.34 1004.82 1003.46 1002.93 1002.75 1003.12 1003.85 1004.57 1004.81 1004.66 1004.13
1028.54 1028.01 1027.33 1026.66 1025.74 1024.70 1024.87 1026.46 1026.74 1026.28 1025.94 1025.34 1024.44 1023.65 1023.11 1022.27 1021.38 1020.59 1019.78 1019.62 1019.27 1018.77 1018.65 1018.65 1017.58 1017.02 1016.08 1014.46 1012.86 1012.70 1011.68 1010.62 1009.23 1007.26 1005.40 1004.15 1003.76 1003.56 1003.63 1003.82 1004.07 1004.34 1004.42 1004.01
1029.04 1028.59 1028.08 1027.53 1026.88 1026.27 1026.93 1026.95 1026.86 1026.91 1026.45 1025.86 1025.24 1024.66 1023.94 1023.07 1022.26 1021.13 1020.82 1020.26 1019.72 1019.18 1018.79 1018.43 1017.56 1016.74 1016.03 1014.79 1014.48 1013.85 1012.87 1011.83 1010.49 1008.87 1007.10 1005.33 1005.06 1004.71 1004.51 1004.86 1005.33 1004.99 1005.30 1004.74
1029.35 1028.96 1028.59 1028.17 1027.60 1027.38 1027.96 1027.76 1027.67 1027.70 1027.28 1026.52 1026.09 1025.23 1024.42 1023.57 1022.88 1022.18 1021.14 1020.54 1020.03 1019.29 1018.42 1017.74 1016.30 1015.27 1014.72 1014.01 1013.29 1013.68 1013.17 1012.61 1011.61 1010.32 1008.38 1007.40 1006.16 1006.05 1005.95 1006.76 1007.61 1007.34 1006.63 1006.10
1029.56 1029.23 1028.92 1028.59 1028.07 1027.62 1027.93 1027.81 1027.94 1028.08 1027.88 1026.75 1025.87 1025.29 1024.69 1023.99 1023.35 1022.38 1021.48 1020.64 1020.04 1019.08 1018.43 1017.82 1016.58 1015.09 1014.22 1013.31 1012.37 1012.67 1012.96 1012.97 1012.28 1011.60 1010.49 1009.16 1008.38 1009.11 1009.61 1009.22 1009.64 1009.54 1008.90 1007.69
1029.73 1029.52 1029.21 1028.89 1028.44 1027.93 1028.11 1028.07 1027.83 1027.93 1027.98 1026.75 1026.13 1025.63 1024.93 1024.46 1023.67 1022.57 1021.72 1020.76 1019.74 1019.30 1018.94 1018.53 1018.05 1016.51 1014.81 1013.74 1012.53 1011.96 1012.84 1013.16 1013.35 1012.56 1012.10 1011.40 1012.31 1011.54 1011.15 1011.03 1011.03 1010.72 1010.58 1009.76
1029.85 1029.63 1029.37 1029.03 1028.63 1028.18 1028.23 1028.22 1027.86 1027.81 1027.59 1026.54 1026.12 1025.65 1025.19 1024.69 1024.25 1023.77 1022.54 1021.74 1020.94 1020.16 1019.87 1019.27 1018.52 1017.02 1015.59 1014.55 1014.47 1013.94 1013.77 1014.05 1014.27 1013.90 1013.32 1013.12 1014.19 1012.24 1010.99 1011.68 1013.24 1012.44 1012.13 1011.47
1029.86 1029.64 1029.41 1029.04 1028.68 1028.28 1028.10 1028.09 1027.70 1027.80 1027.42 1026.26 1025.61 1025.14 1025.16 1024.83 1024.46 1024.14 1023.35 1022.58 1021.97 1021.40 1020.88 1020.57 1019.81 1018.51 1017.24 1016.27 1016.32 1015.58 1015.06 1014.99 1014.93 1014.67 1014.68 1014.89 1014.99 1013.47 1013.76 1014.81 1014.10 1013.40 1012.66 1012.12
1029.81 1029.57 1029.39 1029.04 1028.67 1028.29 1027.87 1027.97 1027.52 1027.18 1027.32 1026.19 1025.29 1024.29 1023.91 1023.96 1023.58 1023.91 1023.53 1023.56 1022.98 1022.68 1022.53 1022.02 1021.18 1020.03 1018.86 1017.67 1016.79 1016.08 1016.11 1016.05 1015.68 1016.24 1016.92 1016.43 1016.30 1016.25 1016.06 1015.54 1014.87 1013.69 1013.21 1012.07
1029.75 1029.53 1029.33 1028.95 1028.61 1028.24 1027.98 1027.95 1027.68 1027.08 1027.26 1026.34 1025.27 1023.84 1022.70 1022.25 1022.61 1022.67 1023.41 1023.08 1022.65 1022.71 1022.53 1022.70 1022.08 1021.06 1019.80 1019.04 1018.22 1017.43 1017.23 1016.87 1016.75 1016.47 1016.46 1016.57 1016.46 1016.16 1015.70 1014.85 1014.29 1013.77 1013.00 1012.07
1029.68 1029.41 1029.22 1028.90 1028.53 1028.19 1027.87 1028.16 1027.63 1027.64 1027.78 1027.58 1025.38 1023.75 1022.99 1021.99 1021.70 1021.68 1022.11 1022.12 1022.16 1022.42 1022.60 1022.90 1022.70 1021.92 1020.46 1019.91 1019.35 1018.68 1018.33 1017.54 1017.25 1016.76 1016.47 1016.46 1016.36 1015.99 1015.46 1014.93 1014.55 1013.97 1013.15 1012.12
1029.54 1029.26 1029.04 1028.75 1028.38 1028.06 1028.02 1027.87 1028.00 1027.78 1028.47 1028.16 1026.49 1024.70 1022.67 1021.91 1021.47 1021.25 1021.15 1021.63 1022.19 1022.99 1023.41 1023.62 1023.09 1021.86 1020.98 1020.14 1019.51 1018.47 1017.89 1017.38 1017.16 1016.80 1016.47 1016.66 1016.34 1016.09 1016.01 1015.47 1014.76 1013.96 1013.04 1011.75
1029.35 1029.09 1028.88 1028.59 1028.25 1027.96 1028.30 1028.19 1028.10 1027.91 1028.14 1028.16 1027.51 1025.52 1023.61 1022.24 1021.62 1021.38 1021.33 1021.60 1022.14 1022.79 1023.44 1023.52 1022.84 1021.71 1021.28 1020.84 1019.88 1018.36 1017.73 1017.02 1016.54 1016.34 1016.17 1016.24 1016.28 1016.52 1016.50 1015.72 1015.09 1014.26 1013.40 1012.46
1029.13 1028.89 1028.64 1028.32 1028.01 1027.98 1028.27 1028.29 1028.05 1027.89 1028.05 1028.35 1027.84 1026.47 1024.06 1022.58 1022.13 1021.91 1021.93 1021.95 1022.43 1022.92 1023.18 1023.27 1022.86 1021.94 1021.46 1020.88 1020.29 1019.10 1018.15 1016.91 1016.13 1016.25 1016.24 1016.28 1016.46 1016.73 1016.51 1015.99 1015.65 1014.71 1013.73 1013.20
1028.88 1028.64 1028.32 1027.91 1027.56 1027.46 1027.80 1027.95 1027.94 1027.95 1028.42 1028.60 1028.43 1027.11 1025.27 1023.25 1023.26 1023.29 1022.65 1022.87 1023.00 1022.95 1023.05 1022.85 1022.54 1021.71 1021.39 1021.15 1020.50 1019.49 1018.58 1017.66 1017.02 1016.69 1016.46 1016.38 1016.69 1017.01 1016.96 1016.29 1016.00 1015.25 1014.55 1014.09
1028.61 1028.34 1028.00 1027.98 1028.20 1028.28 1028.08 1027.96 1028.01 1028.00 1028.69 1028.70 1028.58 1027.82 1026.19 1024.15 1023.95 1023.74 1023.26 1023.43 1023.67 1023.13 1022.98 1022.71 1022.33 1022.04 1021.79 1021.34 1020.46 1019.65 1018.94 1018.34 1017.54 1016.96 1016.65 1016.64 1017.28 1017.66 1017.43 1016.98 1016.97 1016.53 1015.69 1014.92
1028.36 1028.38 1028.75 1028.66 1028.45 1027.90 1028.03 1028.22 1028.59 1028.53 1028.59 1028.53 1028.32 1027.24 1026.41 1025.32 1024.69 1024.55 1024.68 1024.37 1024.12 1023.28 1022.55 1022.26 1021.95 1022.40 1021.85 1021.25 1020.54 1019.75 1018.86 1017.92 1017.17 1016.79 1016.53 1017.02 1017.83 1018.22 1018.03 1017.95 1017.86 1017.50 1017.10 1016.64
1028.92 1028.98 1028.97 1028.38 1027.91 1028.23 1028.61 1029.27 1029.56 1029.24 1028.83 1028.03 1027.19 1026.66 1026.10 1024.70 1025.00 1025.17 1025.10 1025.00 1024.22 1023.46 1022.47 1022.48 1022.65 1022.37 1021.67 1021.09 1020.56 1019.79 1018.94 1017.92 1016.75 1016.06 1017.18 1017.73 1018.40 1018.68 1018.68 1018.52 1018.09 1018.00 1018.08 1017.69
1028.97 1028.90 1028.70 1028.69 1028.68 1028.95 1029.84 1029.74 1029.08 1028.79 1027.96 1026.81 1026.32 1025.44 1025.32 1024.64 1024.51 1025.10 1025.09 1024.95 1024.42 1023.51 1022.56 1022.81 1023.07 1022.54 1021.74 1021.26 1020.70 1020.16 1019.47 1018.73 1018.23 1018.02 1018.50 1018.80 1018.83 1019.03 1019.09 1019.07 1018.74 1018.30 1018.06 1017.73
1028.79 1028.92 1029.03 1029.16 1029.55 1030.04 1029.91 1029.34 1028.46 1027.90 1026.79 1025.82 1025.38 1025.12 1024.96 1024.62 1024.71 1025.23 1025.37 1025.06 1024.38 1023.39 1023.42 1023.64 1023.60 1022.75 1021.85 1021.38 1020.81 1020.32 1019.76 1019.42 1019.01 1018.76 1018.52 1018.74 1018.67 1018.72 1018.56 1018.53 1018.35 1018.23 1018.08 1017.82
1028.90 1029.01 1029.20 1029.23 1029.45 1028.94 1028.14 1027.53 1026.91 1026.13 1025.79 1025.42 1025.18 1025.18 1025.39 1025.11 1025.18 1025.15 1025.31 1024.60 1024.09 1023.92 1024.05 1023.98 1023.70 1023.03 1021.86 1021.28 1020.91 1020.31 1019.96 1019.63 1019.38 1019.04 1018.89 1018.87 1018.94 1018.87 1018.69 1018.67 1018.55 1018.62 1018.52 1018.09
1028.60 1028.61 1028.32 1027.83 1027.33 1027.05 1026.71 1026.29 1026.15 1025.45 1025.19 1025.07 1025.08 1025.14 1025.45 1025.29 1025.43 1025.23 1024.98 1024.61 1024.36 1024.18 1024.50 1023.78 1023.09 1022.42 1021.40 1021.22 1020.77 1020.22 1019.96 1019.62 1019.48 1019.22 1018.95 1018.74 1018.67 1018.66 1018.62 1018.58 1018.52 1018.63 1018.76 1018.76
1027.92 1027.50 1026.89 1026.43 1026.73 1026.51 1026.20 1025.65 1025.40 1024.76 1024.72 1024.96 1025.31 1025.58 1025.83 1025.57 1025.25 1024.98 1024.60 1024.24 1024.05 1023.99 1023.64 1022.93 1022.39 1022.14 1021.78 1021.25 1020.74 1020.12 1019.77 1019.47 1019.17 1019.07 1018.92 1018.71 1018.48 1018.53 1018.61 1018.43 1018.37 1018.74 1018.90 1019.15
1026.70 1026.01 1025.52 1025.69 1025.75 1025.85 1025.40 1025.13 1024.73 1024.25 1024.76 1025.30 1025.42 1025.84 1025.56 1025.13 1024.99 1024.43 1023.72 1023.44 1023.45 1023.30 1023.02 1022.61 1022.29 1022.00 1021.52 1020.90 1020.36 1019.88 1019.61 1019.30 1019.21 1019.07 1018.86 1018.71 1018.48 1018.59 1018.80 1019.11 1019.30 1019.17 1019.13 1019.25
Wind_Speed
26 27 29 30 33 31 8 3 4 6 6 8 4 4 9 12 15 14 9 6 9 13 11 8 0 10 10 16 17 10 4 5 7 7 6 1 7 7 6 7 5 2 5 7
25 27 28 30 32 29 3 3 3 6 7 5 6 8 12 10 18 14 12 10 9 15 9 7 8 12 12 18 16 14 8 4 1 1 6 6 4 6 7 6 3 5 7 8
24 26 28 29 33 31 5 4 6 7 6 0 3 5 10 15 13 12 14 7 13 13 14 10 5 16 10 17 10 17 8 3 4 5 2 3 3 5 7 7 5 5 7 4
23 25 26 29 31 30 5 5 2 3 5 10 8 8 13 16 15 9 13 8 15 15 8 11 12 12 15 13 10 13 6 3 6 7 3 4 4 4 10 7 7 9 5 8
21 23 25 26 27 21 6 4 4 5 3 4 5 7 8 13 14 8 14 13 13 11 3 5 16 14 10 7 7 11 8 5 4 3 6 6 4 5 5 3 5 3 7 5
20 21 22 23 24 15 4 3 3 4 6 7 6 8 11 13 13 6 12 10 7 8 8 12 18 17 14 17 10 4 5 4 5 2 9 4 5 1 4 5 14 1 5 6
18 18 19 20 21 13 2 3 1 4 4 3 5 9 12 14 13 11 11 10 4 8 14 16 14 14 15 18 16 10 6 6 2 2 4 3 4 14 12 18 14 17 14 16
17 17 17 17 19 19 3 2 3 2 5 4 5 13 13 12 11 12 10 11 10 15 9 4 7 6 3 10 14 10 12 2 3 2 1 2 4 13 10 10 8 16 16 17
15 16 16 15 17 19 3 2 1 1 1 4 8 7 5 5 9 6 6 9 11 6 2 2 0 3 5 3 5 3 9 4 3 3 2 4 7 17 13 11 2 18 19 17
13 15 15 14 15 17 4 3 1 1 3 5 5 3 5 4 4 4 7 11 8 6 5 2 1 3 7 3 6 5 3 3 4 3 1 4 12 20 16 6 4 18 17 16
12 13 14 14 14 16 8 4 2 1 3 7 4 2 7 5 3 3 5 6 5 4 5 4 4 4 5 3 4 6 4 1 2 1 1 3 19 6 8 7 10 14 16 13
10 12 14 14 13 15 13 3 3 2 3 7 5 14 14 11 14 2 3 4 2 3 3 4 4 4 4 10 4 9 5 3 3 5 3 6 4 5 4 8 10 11 14 19
9 12 13 13 13 14 12 4 4 1 1 6 4 6 9 5 7 6 3 3 2 2 5 2 3 3 2 4 4 7 7 8 5 2 5 3 4 8 9 11 10 15 16 18
9 11 13 13 12 14 14 3 3 2 2 4 8 5 9 13 6 5 5 4 1 1 2 1 1 2 1 2 3 3 3 6 1 3 3 3 4 8 12 13 15 15 17 17
9 11 13 12 12 14 6 1 2 1 3 3 7 14 6 8 7 8 6 2 2 2 2 2 2 3 3 3 2 2 3 4 1 3 4 3 4 6 12 12 15 17 18 15
9 11 12 12 12 12 3 4 0 1 2 2 5 5 7 9 8 7 5 1 2 3 4 3 3 4 1 2 3 5 5 7 7 4 4 2 3 3 8 12 16 17 16 12
9 12 12 13 13 4 2 2 3 3 1 2 5 6 6 6 4 4 3 3 1 2 1 0 2 3 3 1 2 10 13 14 4 3 2 4 1 2 8 11 16 17 12 13
10 12 13 14 11 3 0 1 3 2 3 1 3 6 6 4 4 4 1 2 3 3 1 3 2 4 2 2 10 8 11 11 5 11 5 3 4 4 9 12 15 15 13 14
11 12 12 4 4 2 2 2 2 1 2 1 1 2 5 4 3 2 5 3 3 2 2 2 3 3 4 7 8 7 7 5 9 10 7 3 6 6 12 15 15 13 12 14
11 3 4 3 3 4 1 4 4 3 2 2 3 2 4 2 2 4 3 2 1 1 3 2 3 1 4 6 7 7 9 9 8 5 4 10 6 9 13 14 10 13 13 13
3 3 1 4 2 4 3 2 3 2 4 2 5 5 3 2 1 3 1 2 2 2 2 3 3 3 3 6 8 9 10 9 14 7 13 13 9 9 9 10 11 9 9 10
3 3 2 2 4 3 5 2 4 2 4 3 3 5 5 4 2 4 4 1 3 3 4 5 2 4 6 7 7 8 8 9 14 18 15 8 10 9 9 6 6 7 3 6
2 0 2 3 2 6 4 2 4 2 3 4 3 4 1 4 4 2 3 3 3 2 5 2 2 7 10 7 6 7 7 6 6 6 6 7 7 4 3 2 2 5 5 4
2 2 3 5 3 5 5 5 4 5 3 4 2 3 2 1 3 1 2 4 3 4 3 1 3 5 11 8 6 4 5 2 2 4 5 5 4 4 4 4 4 3 6 7
3 4 5 6 5 4 5 4 2 4 2 2 3 2 3 2 2 1 2 6 2 3 2 3 4 8 8 6 7 3 4 1 2 3 1 1 3 4 5 5 6 5 5 6
4 5 2 3 3 4 3 3 3 3 1 2 3 2 4 3 2 1 4 2 2 3 3 4 5 3 6 7 9 7 5 5 3 3 4 5 3 3 3 5 4 3 2 4
5 4 3 3 2 5 4 3 4 1 3 2 3 1 5 1 1 3 4 4 4 4 4 3 4 6 9 9 8 10 7 6 3 5 6 4 3 6 6 8 6 7 6 4
Wind_Direction
3 1 356 353 349 350 37 9 35 310 356 43 351 358 325 350 355 10 4 338 353 356 337 315 344 1 347 351 331 338 298 306 233 214 279 347 154 149 124 121 248 122 139 267
3 3 359 356 351 353 343 31 300 335 37 53 340 330 354 11 13 11 4 17 357 346 351 332 9 350 335 2 333 345 334 304 104 139 350 343 189 172 135 119 95 180 127 257
7 7 3 360 354 353 68 48 16 333 25 66 331 358 352 0 11 347 4 21 355 358 336 345 5 357 343 322 317 348 337 269 336 204 167 259 203 194 130 126 124 163 199 248
9 10 9 6 360 353 70 31 293 207 331 354 359 12 10 7 3 349 10 342 0 344 355 332 5 356 330 323 2 350 20 320 332 308 293 38 58 193 148 159 164 183 164 195
9 11 13 12 7 2 60 65 25 350 293 311 354 16 343 360 348 332 350 351 347 334 66 335 318 324 320 284 330 343 340 311 321 322 16 49 68 14 23 110 183 156 170 213
11 11 13 15 16 22 44 317 322 98 312 338 7 2 358 350 358 335 339 357 347 323 317 308 294 279 261 260 275 305 297 334 355 3 339 46 26 8 65 50 28 340 170 244
13 10 10 12 16 36 122 274 15 53 300 359 352 332 348 339 345 326 323 340 339 289 298 293 275 255 238 244 248 201 267 324 321 289 331 93 257 33 41 92 46 19 26 6
12 8 6 4 10 16 47 303 47 75 308 292 315 341 334 329 334 323 308 323 307 304 299 301 318 328 359 244 248 205 204 230 307 74 304 257 42 24 360 2 49 21 359 358
6 6 1 359 2 5 23 307 313 20 330 278 327 327 318 314 334 314 292 318 318 340 305 349 310 304 303 27 314 192 166 174 108 329 122 170 28 320 314 290 170 2 357 345
2 1 358 355 357 359 27 287 345 352 284 282 338 273 292 302 297 272 306 336 338 4 341 334 325 272 322 7 28 328 87 54 161 270 313 86 355 314 308 163 329 331 340 329
357 356 352 353 354 354 2 275 254 62 283 283 243 260 294 300 236 299 314 3 358 317 349 7 332 330 344 30 37 339 27 277 154 339 355 323 3 22 43 317 308 327 328 325
349 349 348 348 349 349 352 302 299 243 218 253 270 279 259 229 239 259 344 213 283 247 346 8 318 315 344 350 22 7 23 342 43 41 357 294 9 347 307 292 308 326 323 326
341 346 342 344 346 345 354 322 291 322 322 303 346 306 304 245 214 188 132 289 236 282 188 213 284 308 331 348 346 340 27 358 34 123 322 10 298 339 341 344 338 329 333 322
333 341 338 338 339 340 353 319 316 48 325 310 285 329 315 291 257 172 192 238 95 193 80 121 263 281 329 295 311 3 348 335 345 298 314 301 253 359 350 350 344 340 331 325
325 336 333 332 337 340 0 326 7 107 96 271 292 310 271 306 325 328 299 170 118 98 30 50 269 278 351 314 304 281 198 221 131 245 263 201 291 349 353 344 345 334 332 332
318 330 327 324 330 344 43 12 186 332 109 323 309 287 291 306 307 315 304 352 94 120 138 231 281 268 65 17 299 299 327 299 209 227 250 206 280 62 343 359 357 338 327 1
315 324 320 317 316 327 139 289 277 335 60 5 301 306 277 293 329 326 345 5 39 112 179 11 235 285 98 95 321 330 350 357 25 228 310 310 19 20 1 23 360 346 2 13
316 319 314 307 322 50 28 342 354 56 73 73 303 279 331 327 308 328 343 9 17 344 212 325 268 322 59 53 333 356 353 345 2 352 254 243 70 35 25 31 11 356 25 12
316 317 313 30 38 51 282 337 343 297 128 165 328 256 273 336 293 269 338 65 13 319 351 315 13 342 40 321 319 327 319 304 291 302 292 226 90 46 43 43 20 2 13 20
312 8 35 3 264 243 360 30 19 342 289 224 250 263 271 85 342 306 25 20 249 350 246 102 27 58 257 305 308 308 314 301 292 266 302 105 85 63 54 49 34 23 21 16
34 34 292 241 244 53 45 328 86 299 325 223 238 216 246 281 48 253 132 261 306 352 307 88 353 339 303 339 319 316 319 13 22 73 68 82 94 84 71 47 28 33 31 26
206 200 264 316 30 30 71 284 302 205 249 249 212 245 200 286 96 64 330 331 1 294 328 72 5 271 305 316 305 321 330 20 66 79 87 100 115 119 108 87 72 70 346 348
34 297 340 67 293 22 134 250 284 283 255 264 313 320 252 347 39 39 44 354 265 340 28 46 288 318 310 322 317 329 336 16 37 56 84 119 139 170 160 144 314 351 333 324
204 196 317 166 266 237 202 204 196 238 220 284 258 301 119 255 37 198 30 262 30 15 36 336 239 268 285 294 286 351 336 10 53 119 131 140 175 209 208 225 257 297 311 322
243 186 227 213 218 239 227 228 269 265 229 40 9 359 93 326 46 297 357 358 297 35 208 243 237 229 273 301 285 307 309 141 242 266 268 238 268 286 292 253 225 226 280 341
229 238 260 250 112 276 296 217 239 243 107 67 53 41 28 291 194 304 220 246 88 229 232 238 274 330 296 290 286 283 276 276 265 253 245 264 291 289 302 6 350 16 36 21
230 247 216 204 206 201 218 193 243 149 84 178 113 73 236 2 297 239 206 184 195 218 255 259 251 283 298 299 285 258 248 260 291 326 337 307 357 68 77 65 41 39 44 63